[[{"header":{"parameterUnit":"m.s-1","parameterCategory":1,"la1":30.2991,"la2":30.254,"lo1":-89.0895,"lo2":-89.0444,"dy":0.0017,"dx":0.0017,"nx":28,"ny":28,"refTime":"2023-09-13T03:00:00:Z","depth":0,"parameterNumber":2,"parameterNumberName":"U-component_of_WINDS"},"data":[0,0,0,0,0,0,0,0,0,0,0,0,0,0,0,0,0,0,0,0,0,0,0,0,0,0,0,0,0,0,0,0,0,0,0,0,0,0,0,0,0,0,0,0,0,0,0,0,0,0,0,0,0,0,0,0,0,0,1.666,1.666,0,1.6705,1.6705,1.6706,1.6698,1.6697,1.6696,1.6695,1.6742,1.6744,1.6746,0,0,0,0,0,0,0,0,0,0,0,0,0,1.6568,1.6569,1.666,1.666,1.6661,1.6705,1.6705,1.6706,1.6698,1.6697,1.6696,1.6695,1.6742,1.6744,1.6746,0,0,0,0,0,0,0,0,0,0,0,0,0,1.661,1.657,1.666,1.6662,1.6663,1.6705,1.6705,1.6706,1.6698,1.6697,1.6695,1.6694,1.6741,1.6744,1.6747,1.6789,0,0,1.6756,1.6757,0,0,0,0,0,0,0,0,1.6607,1.6613,1.6661,1.6662,1.6663,1.6694,1.669,1.6734,1.6698,1.6685,1.6695,1.6694,1.6727,1.6731,1.6743,1.6792,1.6794,1.6756,1.6758,1.6759,1.676,0,0,0,0,0,0,0,1.6604,1.6611,1.6678,1.6662,1.6663,1.6661,1.6666,1.6698,1.6712,1.6686,1.6685,1.6691,1.6728,1.674,1.6744,1.6794,1.6756,1.6759,1.6761,1.6762,1.6881,1.6882,0,0,0,0,0,0,1.6601,1.6609,1.6676,1.6679,1.6631,1.6664,1.6669,1.6685,1.6712,1.6715,1.6692,1.669,1.6735,1.674,1.6745,1.6797,1.6759,1.6762,1.6764,1.688,1.6881,1.6883,0,0,0,0,0,0,1.6599,1.6607,1.6674,1.6644,1.6652,1.6667,1.6685,1.6687,1.6699,1.6716,1.6719,1.6701,1.6734,1.6741,1.6778,1.6799,1.6763,1.6766,1.6878,1.688,1.6882,1.6901,0,0,0,0,0,0,1.6596,1.6606,1.6622,1.6644,1.6654,1.6707,1.6686,1.6689,1.6704,1.6702,1.6726,1.6729,1.6734,1.6774,1.6781,1.6802,1.6768,1.6876,1.6879,1.6882,1.6899,1.6904,1.6908,0,0,0,0,0,1.6593,1.6626,1.6623,1.6631,1.6674,1.6708,1.6713,1.6718,1.6706,1.6722,1.6733,1.6728,1.6795,1.6778,1.6786,1.6808,1.6875,1.6878,1.6881,1.6897,1.6903,1.6908,0,0,0,0,0,0,1.6606,1.6629,1.6626,1.6667,1.6685,1.6706,1.6727,1.6724,1.6747,1.6745,1.675,1.6756,1.6794,1.6805,1.6785,1.6851,1.6833,1.6838,1.6842,1.6848,1.6853,1.6849,1.6771,0,0,0,0,0,1.6614,1.6639,1.6657,1.6692,1.6701,1.6713,1.6728,1.673,1.6749,1.6757,1.6771,1.679,1.6816,1.6833,1.6857,1.69,1.6906,1.692,1.6924,1.6928,1.6932,1.6956,1.6962,1.6893,1.6893,1.6893,0,0,1.663,1.6645,1.6661,1.6695,1.671,1.6736,1.6719,1.6748,1.6767,1.6762,1.6798,1.6809,1.6831,1.6872,1.689,1.6882,1.6952,1.6932,1.6934,1.6937,1.696,1.6966,1.6972,1.6895,1.6895,1.6894,0,0,1.6673,1.6687,1.6717,1.6732,1.6755,1.6762,1.6769,1.6791,1.6798,1.6834,1.6831,1.6854,1.6898,1.6914,1.6928,1.6977,1.6973,1.6985,1.7008,1.7031,1.7037,1.7042,1.706,1.7066,1.6989,1.6989,1.6989,0,1.669,1.6729,1.6733,1.6762,1.6777,1.6773,1.6804,1.6819,1.6848,1.6859,1.6849,1.6904,1.6919,1.6963,1.6975,1.6986,1.6995,1.6982,1.7036,1.7041,1.7045,1.7062,1.7069,1.699,1.699,1.699,1.699,0,1.675,1.6777,1.6799,1.6827,1.6845,1.6874,1.6884,1.6901,1.6902,1.691,1.6948,1.6965,1.6993,1.7004,1.7005,1.7049,1.7043,1.7034,1.7017,1.7053,1.7069,1.7076,1.6992,1.6992,1.6991,1.6991,0,0,1.6802,1.6832,1.684,1.6853,1.6878,1.6899,1.6929,1.6956,1.6971,1.6991,1.7016,1.7054,1.7046,1.7062,1.7065,1.7085,1.7123,1.7074,1.7075,1.7083,1.7173,1.7179,1.7187,1.7121,1.7122,1.7123,1.7171,0,1.6847,1.69,1.6905,1.6952,1.6977,1.6973,1.6999,1.7017,1.7026,1.7049,1.7059,1.7086,1.7073,1.7083,1.7103,1.7115,1.7142,1.7111,1.7145,1.7146,1.714,1.7195,1.7202,1.7247,1.7178,1.7179,1.7179,0,1.6907,1.6929,1.6979,1.7,1.7011,1.7034,1.7059,1.7081,1.7102,1.7107,1.7124,1.7125,1.7156,1.7137,1.718,1.7159,1.7173,1.7181,1.7183,1.7186,1.7165,1.72,1.7261,1.7268,1.7189,1.7189,1.7188,0,1.6941,1.6983,1.7018,1.7029,1.7055,1.7071,1.7082,1.7102,1.7118,1.714,1.7151,1.7176,1.719,1.7211,1.7218,1.7203,1.7261,1.7242,1.7266,1.7266,1.7278,1.7278,1.7342,1.7287,1.7287,1.7287,1.7287,0,1.6991,1.7022,1.7034,1.7055,1.7089,1.7095,1.7129,1.7139,1.7156,1.718,1.7179,1.7201,1.7209,1.7234,1.7239,1.7274,1.7281,1.7286,1.7287,1.7286,1.7286,1.7296,1.7293,1.7289,1.7288,1.7288,1.7288,0,1.7035,1.7044,1.7082,1.7103,1.7109,1.7133,1.7151,1.7172,1.7181,1.7211,1.7218,1.7232,1.726,1.7269,1.7303,1.7307,1.7348,1.7347,1.7341,1.7341,1.7365,1.7362,1.7438,1.7448,1.7387,1.7387,1.7388,0,1.7066,1.709,1.7113,1.7129,1.7141,1.7166,1.7183,1.7189,1.7206,1.7231,1.7249,1.7277,1.73,1.7345,1.7358,1.7384,1.7384,1.7408,1.7387,1.7386,1.7384,1.7383,1.7385,1.7412,1.7413,1.7413,1.7414,0,1.7121,1.7125,1.7148,1.7174,1.7193,1.7213,1.7233,1.7246,1.7255,1.7275,1.7303,1.7321,1.7356,1.7383,1.741,1.7422,1.742,1.742,1.7427,1.7426,1.7422,1.7425,1.7352,1.7418,1.7418,1.7418,1.7417,1.7417,1.716,1.7181,1.7201,1.7227,1.7242,1.7261,1.7281,1.7293,1.7316,1.7345,1.7347,1.7378,1.7399,1.7434,1.7448,1.7472,1.7465,1.7475,1.7478,1.748,1.7482,1.7418,1.7477,1.7477,1.7477,1.7477,1.7477,0,1.7215,1.7228,1.7252,1.7279,1.73,1.7296,1.7317,1.7335,1.7362,1.7381,1.7403,1.7437,1.7464,1.7479,1.7506,1.7523,1.7522,1.7529,1.7528,1.7531,1.7487,1.7478,1.7529,1.7529,1.7529,1.7529,1.7529,1.7529,1.7247,1.7282,1.7287,1.733,1.7342,1.7373,1.7385,1.7402,1.7417,1.7454,1.7477,1.7486,1.7504,1.7532,1.7557,1.756,1.7571,1.7579,1.7582,1.754,1.7534,1.7529,1.7521,1.7581,1.7581,1.7625,1.7625,1.7625]},{"header":{"parameterUnit":"m.s-1","parameterCategory":1,"la1":30.2991,"la2":30.254,"lo1":-89.0895,"lo2":-89.0444,"dy":0.0017,"dx":0.0017,"nx":28,"ny":28,"refTime":"2023-09-13T03:00:00:Z","depth":0,"parameterNumber":3,"parameterNumberName":"V-component_of_WINDS"},"data":[0,0,0,0,0,0,0,0,0,0,0,0,0,0,0,0,0,0,0,0,0,0,0,0,0,0,0,0,0,0,0,0,0,0,0,0,0,0,0,0,0,0,0,0,0,0,0,0,0,0,0,0,0,0,0,0,0,0,-0.1889,-0.1889,0,-0.1907,-0.1908,-0.1908,-0.1902,-0.1902,-0.1901,-0.1901,-0.192,-0.1921,-0.1922,0,0,0,0,0,0,0,0,0,0,0,0,0,-0.185,-0.1851,-0.1889,-0.1889,-0.1889,-0.1907,-0.1908,-0.1908,-0.1902,-0.1902,-0.1901,-0.1901,-0.192,-0.1921,-0.1922,0,0,0,0,0,0,0,0,0,0,0,0,0,-0.1868,-0.1851,-0.1889,-0.1889,-0.1889,-0.1907,-0.1908,-0.1908,-0.1902,-0.1902,-0.1901,-0.19,-0.1919,-0.1921,-0.1922,-0.1942,0,0,-0.1926,-0.1926,0,0,0,0,0,0,0,0,-0.1867,-0.1869,-0.1888,-0.1889,-0.1889,-0.1902,-0.1901,-0.1919,-0.1902,-0.1897,-0.1901,-0.19,-0.1914,-0.1916,-0.1921,-0.1943,-0.1943,-0.1926,-0.1927,-0.1927,-0.1928,0,0,0,0,0,0,0,-0.1865,-0.1868,-0.1896,-0.1889,-0.1889,-0.1888,-0.189,-0.1904,-0.1909,-0.1898,-0.1897,-0.1899,-0.1914,-0.192,-0.1921,-0.1944,-0.1926,-0.1927,-0.1928,-0.1928,-0.1985,-0.1986,0,0,0,0,0,0,-0.1864,-0.1867,-0.1896,-0.1897,-0.1876,-0.1889,-0.1891,-0.1898,-0.1909,-0.191,-0.19,-0.1899,-0.1918,-0.192,-0.1922,-0.1948,-0.1927,-0.1929,-0.1929,-0.1985,-0.1986,-0.1986,0,0,0,0,0,0,-0.1863,-0.1866,-0.1895,-0.1882,-0.1885,-0.1891,-0.1898,-0.1899,-0.1904,-0.191,-0.1911,-0.1904,-0.1917,-0.192,-0.1937,-0.1948,-0.1929,-0.193,-0.1984,-0.1985,-0.1986,-0.1998,0,0,0,0,0,0,-0.1862,-0.1866,-0.1873,-0.1882,-0.1886,-0.191,-0.1899,-0.19,-0.1906,-0.1905,-0.1915,-0.1916,-0.1917,-0.1936,-0.1939,-0.195,-0.1931,-0.1983,-0.1984,-0.1986,-0.1997,-0.1999,-0.2002,0,0,0,0,0,-0.1861,-0.1875,-0.1874,-0.1877,-0.1895,-0.191,-0.1912,-0.1914,-0.1907,-0.1915,-0.1919,-0.1915,-0.1946,-0.1937,-0.1941,-0.1952,-0.1982,-0.1984,-0.1985,-0.1995,-0.1999,-0.2001,0,0,0,0,0,0,-0.1867,-0.1876,-0.1875,-0.1893,-0.1901,-0.1909,-0.1919,-0.1917,-0.1927,-0.1925,-0.1926,-0.1929,-0.1947,-0.1951,-0.1941,-0.1973,-0.1963,-0.1966,-0.197,-0.1973,-0.1975,-0.1974,-0.1932,0,0,0,0,0,-0.1871,-0.1882,-0.1889,-0.1905,-0.1909,-0.1913,-0.192,-0.192,-0.1928,-0.1932,-0.1937,-0.1946,-0.1958,-0.1965,-0.1976,-0.1997,-0.2,-0.2007,-0.2009,-0.2011,-0.2014,-0.2027,-0.2031,-0.1992,-0.1992,-0.1992,0,0,-0.1878,-0.1885,-0.1891,-0.1906,-0.1912,-0.1925,-0.1916,-0.1929,-0.1938,-0.1934,-0.1951,-0.1956,-0.1965,-0.1985,-0.1994,-0.1989,-0.2025,-0.2013,-0.2015,-0.2016,-0.2029,-0.2033,-0.2036,-0.1993,-0.1993,-0.1992,0,0,-0.1898,-0.1903,-0.1918,-0.1925,-0.1935,-0.1938,-0.1941,-0.195,-0.1954,-0.1971,-0.1968,-0.198,-0.2,-0.2007,-0.2014,-0.2039,-0.2037,-0.2043,-0.2056,-0.2069,-0.2072,-0.2075,-0.2086,-0.2089,-0.2045,-0.2045,-0.2045,0,-0.1906,-0.1924,-0.1925,-0.1939,-0.1946,-0.1944,-0.1959,-0.1965,-0.1978,-0.1984,-0.1978,-0.2005,-0.2011,-0.2033,-0.204,-0.2045,-0.205,-0.2042,-0.2072,-0.2074,-0.2077,-0.2087,-0.2091,-0.2046,-0.2046,-0.2046,-0.2046,0,-0.1934,-0.1947,-0.1958,-0.1971,-0.198,-0.1994,-0.1998,-0.2007,-0.2007,-0.2011,-0.203,-0.2037,-0.2051,-0.2056,-0.2056,-0.2079,-0.2076,-0.2071,-0.2061,-0.2082,-0.2091,-0.2095,-0.2047,-0.2047,-0.2046,-0.2046,0,0,-0.1958,-0.1973,-0.1977,-0.1984,-0.1996,-0.2006,-0.2021,-0.2035,-0.2043,-0.2053,-0.2066,-0.2084,-0.208,-0.2088,-0.2089,-0.21,-0.2122,-0.2094,-0.2094,-0.21,-0.2151,-0.2155,-0.216,-0.212,-0.2121,-0.2122,-0.215,0,-0.198,-0.2007,-0.2009,-0.2033,-0.2046,-0.2044,-0.2058,-0.2067,-0.2072,-0.2084,-0.2089,-0.2102,-0.2095,-0.21,-0.2111,-0.2117,-0.2132,-0.2115,-0.2134,-0.2135,-0.2133,-0.2164,-0.2169,-0.2195,-0.2154,-0.2155,-0.2155,0,-0.2009,-0.2021,-0.2046,-0.2058,-0.2064,-0.2076,-0.209,-0.2101,-0.2112,-0.2115,-0.2124,-0.2124,-0.2141,-0.213,-0.2154,-0.2142,-0.2151,-0.2155,-0.2156,-0.2159,-0.2147,-0.2169,-0.2204,-0.2208,-0.2161,-0.216,-0.216,0,-0.2026,-0.2048,-0.2066,-0.2072,-0.2086,-0.2095,-0.2101,-0.2112,-0.2121,-0.2133,-0.2139,-0.2153,-0.2161,-0.2172,-0.2176,-0.2168,-0.2201,-0.219,-0.2205,-0.2205,-0.2212,-0.2212,-0.225,-0.2216,-0.2216,-0.2215,-0.2215,0,-0.2051,-0.2067,-0.2074,-0.2086,-0.2105,-0.2108,-0.2126,-0.2132,-0.2142,-0.2155,-0.2155,-0.2167,-0.2172,-0.2186,-0.2189,-0.221,-0.2213,-0.2216,-0.2217,-0.2217,-0.2217,-0.2223,-0.2222,-0.2217,-0.2216,-0.2216,-0.2216,0,-0.2073,-0.2078,-0.2099,-0.2111,-0.2114,-0.2128,-0.2139,-0.215,-0.2155,-0.2173,-0.2177,-0.2185,-0.2201,-0.2207,-0.2226,-0.2229,-0.2253,-0.2252,-0.225,-0.225,-0.2265,-0.2264,-0.2309,-0.2316,-0.2276,-0.2277,-0.2277,0,-0.2089,-0.2101,-0.2115,-0.2125,-0.2131,-0.2146,-0.2155,-0.2159,-0.2169,-0.2184,-0.2195,-0.2211,-0.2225,-0.2252,-0.226,-0.2275,-0.2275,-0.229,-0.2277,-0.2278,-0.2277,-0.2277,-0.2279,-0.2292,-0.2293,-0.2293,-0.2293,0,-0.2117,-0.212,-0.2133,-0.2149,-0.216,-0.2172,-0.2184,-0.2191,-0.2197,-0.2209,-0.2226,-0.2237,-0.2258,-0.2275,-0.2291,-0.2298,-0.2298,-0.2297,-0.2302,-0.2302,-0.2301,-0.2304,-0.2258,-0.2296,-0.2296,-0.2296,-0.2296,-0.2296,-0.2138,-0.2149,-0.2162,-0.2178,-0.2187,-0.2199,-0.2211,-0.2218,-0.2233,-0.225,-0.2252,-0.2271,-0.2284,-0.2306,-0.2314,-0.233,-0.2326,-0.2332,-0.2334,-0.2335,-0.2337,-0.2298,-0.2333,-0.2333,-0.2333,-0.2333,-0.2332,0,-0.2167,-0.2176,-0.219,-0.2207,-0.222,-0.2218,-0.2232,-0.2243,-0.226,-0.2272,-0.2285,-0.2306,-0.2323,-0.2333,-0.2351,-0.2362,-0.2362,-0.2366,-0.2366,-0.2368,-0.2339,-0.2334,-0.2366,-0.2366,-0.2366,-0.2366,-0.2366,-0.2366,-0.2184,-0.2205,-0.2209,-0.2236,-0.2244,-0.2263,-0.2271,-0.2282,-0.2292,-0.2316,-0.233,-0.2336,-0.2348,-0.2367,-0.2383,-0.2386,-0.2393,-0.2398,-0.24,-0.2373,-0.237,-0.2367,-0.2362,-0.2399,-0.2399,-0.2428,-0.2429,-0.2429]}]]